Location: Newark
(42.8481°N, 0.4872°E)
Time: 19:45:18
(UTC+00:00)

Transit 2A - Pass Details

Date: 05 November 2020
Orbit: 595 x 963 km, 66.7° (Epoch: 03 December)

Event Time Altitude Azimuth Distance (km) Brightness Sun altitude
Rises 22:08:08 0° 188° (S) 3,610 - -56.6°
Reaches altitude 10° 22:10:46 10° 182° (S) 2,684 - -56.9°
Maximum altitude 22:16:44 45° 112° (ESE) 1,292 - -57.6°
Drops below altitude 10° 22:22:38 10° 43° (NE) 2,656 - -58.3°
Sets 22:25:14 0° 37° (NE) 3,570 - -58.6°
